This is the latest recevied weather packets stored in our database for station/object WB9ZLM. If no packets are shown the sender has not sent any weather packets the latest 10 day(s).
| Time | Temp. | Humidity | Pressure | Rain* | Wind** | Luminosity | Snow |
|---|---|---|---|---|---|---|---|
| 1777656660 | 11.67° C | 46% | 1019.5 hPa | 0 mm | - | - | - |
| 1777655821 | 11.11° C | 44% | 1019.8 hPa | 0 mm | - | - | - |
| 1777655760 | 11.11° C | 44% | 1019.8 hPa | 0 mm | - | - | - |
| 1777654922 | 11.11° C | 44% | 1019.6 hPa | 0 mm | - | - | - |
| 1777654860 | 11.11° C | 44% | 1019.6 hPa | 0 mm | - | - | - |
| 1777654021 | 11.11° C | 48% | 1019.6 hPa | 0 mm | - | - | - |
| 1777653960 | 11.11° C | 48% | 1019.6 hPa | 0 mm | - | - | - |
| 1777653121 | 10.56° C | 49% | 1019.7 hPa | 0 mm | - | - | - |
| 1777653060 | 10.56° C | 49% | 1019.7 hPa | 0 mm | - | - | - |
| 1777652221 | 10.56° C | 46% | 1019.9 hPa | 0 mm | - | - | - |
| 1777652161 | 10.56° C | 46% | 1019.9 hPa | 0 mm | - | - | - |
| 1777651322 | 10.56° C | 49% | 1014.1 hPa | 0 mm | - | - | - |
| 1777651260 | 10.56° C | 49% | 1014.1 hPa | 0 mm | - | - | - |
| 1777650421 | 10° C | 50% | 1019.9 hPa | 0 mm | - | - | - |
| 1777650361 | 10° C | 50% | 1019.9 hPa | 0 mm | - | - | - |
| 1777649522 | 10° C | 51% | 1019.7 hPa | 0 mm | - | - | - |
| 1777649460 | 10° C | 51% | 1019.7 hPa | 0 mm | - | - | - |
| 1777648621 | 10° C | 54% | 1019.8 hPa | 0 mm | - | - | - |
| 1777647721 | 9.44° C | 57% | 1019.8 hPa | 0 mm | - | - | - |
| 1777647660 | 9.44° C | 57% | 1019.8 hPa | 0 mm | - | - | - |
| 1777646822 | 9.44° C | 62% | 1019.8 hPa | 0 mm | - | - | - |
| 1777646761 | 9.44° C | 62% | 1019.8 hPa | 0 mm | - | - | - |
| 1777645921 | 8.89° C | 66% | 1019.7 hPa | 0 mm | - | - | - |
| 1777645860 | 8.89° C | 66% | 1019.7 hPa | 0 mm | - | - | - |
| 1777645022 | 8.89° C | 71% | 1019.7 hPa | 0 mm | - | - | - |
* Rain latest hour (hover to see other rain measurements)
** Current wind speed in m/s (hover to see current wind gust speed)